| time (UTC) | temp F | wind direction | speed MPH | gust MPH | rain 1hr in | rain 24hr in | rain mn in | humidity % | barometer mb |
| 20260508220030 | 76 | 208 | 0.0 | 3.0 | 0.00 | 0.03 | 0.00 | 70 | |
| 20260508214530 | 76 | 263 | 2.0 | 3.0 | 0.00 | 0.03 | 0.00 | 72 | |
| 20260508213040 | 76 | 236 | 0.0 | 1.0 | 0.00 | 0.03 | 0.00 | 68 | |
| 20260508211515 | 77 | 185 | 0.0 | 1.0 | 0.00 | 0.03 | 0.00 | 63 | |
| 20260508210015 | 77 | 185 | 2.0 | 2.0 | 0.00 | 0.03 | 0.00 | 63 | |
| 20260508204535 | 78 | 194 | 0.0 | 3.0 | 0.00 | 0.03 | 0.00 | 64 | |
| 20260508203012 | 78 | 189 | 2.0 | 3.0 | 0.00 | 0.03 | 0.00 | 61 | |
| 20260508201511 | 78 | 168 | 3.0 | 3.0 | 0.00 | 0.03 | 0.00 | 63 | |
| 20260508200036 | 78 | 0 | 0.0 | 3.0 | 0.00 | 0.03 | 0.00 | 61 | |
| 20260508194536 | 79 | 46 | 0.0 | 3.0 | 0.00 | 0.03 | 0.00 | 61 | |
| 20260508193014 | 80 | 251 | 0.0 | 5.0 | 0.00 | 0.03 | 0.00 | 57 | |
| 20260508191514 | 81 | 198 | 4.0 | 6.0 | 0.00 | 0.03 | 0.00 | 54 | |
| 20260508190040 | 81 | 282 | 4.0 | 6.0 | 0.00 | 0.03 | 0.00 | 54 | |
| 20260508184539 | 81 | 223 | 3.0 | 5.0 | 0.00 | 0.03 | 0.00 | 56 | |
| 20260508183017 | 81 | 188 | 1.0 | 6.0 | 0.00 | 0.03 | 0.00 | 56 | |
| 20260508181517 | 81 | 224 | 2.0 | 8.0 | 0.00 | 0.03 | 0.03 | 56 | |
| 20260508174524 | 82 | 215 | 8.0 | 10.0 | 0.00 | 0.03 | 0.03 | 56 | |
| 20260508173016 | 82 | 266 | 7.0 | 7.0 | 0.00 | 0.03 | 0.03 | 57 | |
| 20260508171517 | 82 | 207 | 6.0 | 8.0 | 0.00 | 0.03 | 0.03 | 58 | |
| 20260508170035 | 82 | 222 | 8.0 | 9.0 | 0.00 | 0.03 | 0.03 | 57 | |
| 20260508164513 | 82 | 237 | 6.0 | 7.0 | 0.00 | 0.03 | 0.03 | 58 | |
| 20260508163011 | 83 | 167 | 7.0 | 10.0 | 0.00 | 0.03 | 0.03 | 58 | |
| 20260508161529 | 83 | 214 | 4.0 | 7.0 | 0.00 | 0.03 | 0.03 | 60 | |
| 20260508154515 | 84 | 204 | 3.0 | 8.0 | 0.00 | 0.03 | 0.03 | 58 | |
| 20260508153014 | 84 | 356 | 5.0 | 7.0 | 0.00 | 0.03 | 0.03 | 58 | |
| 20260508151534 | 84 | 307 | 3.0 | 4.0 | 0.00 | 0.03 | 0.03 | 59 | |
| 20260508150009 | 84 | 241 | 1.0 | 4.0 | 0.00 | 0.03 | 0.03 | 59 | |
| 20260508144508 | 85 | 237 | 3.0 | 11.0 | 0.00 | 0.03 | 0.03 | 57 | |
| 20260508143028 | 86 | 222 | 12.0 | 14.0 | 0.00 | 0.03 | 0.03 | 56 | |
| 20260508141508 | 86 | 252 | 6.0 | 13.0 | 0.00 | 0.03 | 0.03 | 55 | |
| 20260508140008 | 87 | 357 | 5.0 | 11.0 | 0.00 | 0.03 | 0.03 | 56 | |
| 20260508134509 | 87 | 163 | 6.0 | 10.0 | 0.00 | 0.03 | 0.03 | 55 | |
| 20260508133032 | 88 | 208 | 2.0 | 14.0 | 0.00 | 0.03 | 0.03 | 56 | |
| 20260508131511 | 88 | 186 | 8.0 | 18.0 | 0.00 | 0.03 | 0.03 | 55 | |
| 20260508130051 | 89 | 285 | 13.0 | 17.0 | 0.00 | 0.03 | 0.03 | 52 | |
| 20260508124527 | 90 | 276 | 13.0 | 13.0 | 0.00 | 0.03 | 0.03 | 51 | |
| 20260508123006 | 92 | 151 | 7.0 | 12.0 | 0.00 | 0.03 | 0.03 | 50 | |
| 20260508121545 | 94 | 228 | 4.0 | 9.0 | 0.00 | 0.03 | 0.03 | 37 | |
| 20260508120022 | 95 | 220 | 5.0 | 9.0 | 0.00 | 0.03 | 0.03 | 35 | |
| 20260508114518 | 95 | 221 | 2.0 | 9.0 | 0.00 | 0.03 | 0.03 | 36 | |
| 20260508113038 | 96 | 45 | 3.0 | 10.0 | 0.00 | 0.03 | 0.03 | 37 | |
| 20260508111514 | 97 | 204 | 7.0 | 8.0 | 0.00 | 0.03 | 0.03 | 35 | |
| 20260508110008 | 97 | 256 | 8.0 | 9.0 | 0.00 | 0.03 | 0.03 | 34 | |
| 20260508104527 | 97 | 197 | 5.0 | 12.0 | 0.00 | 0.03 | 0.03 | 35 | |
| 20260508103004 | 98 | 214 | 2.0 | 11.0 | 0.00 | 0.03 | 0.03 | 34 | |
| 20260508101548 | 99 | 264 | 6.0 | 8.0 | 0.00 | 0.03 | 0.03 | 33 | |
| 20260508100023 | 99 | 248 | 8.0 | 8.0 | 0.00 | 0.03 | 0.03 | 33 | |
| 20260508094520 | 99 | 176 | 6.0 | 10.0 | 0.00 | 0.03 | 0.03 | 34 | |
| 20260508093041 | 98 | 196 | 5.0 | 11.0 | 0.00 | 0.05 | 0.05 | 35 | |
| 20260508091522 | 98 | 356 | 6.0 | 12.0 | 0.00 | 0.05 | 0.03 | 37 | |
| 20260508090014 | 98 | 201 | 2.0 | 11.0 | 0.00 | 0.05 | 0.03 | 39 | |
| 20260508084532 | 98 | 80 | 3.0 | 8.0 | 0.00 | 0.05 | 0.03 | 37 | |
| 20260508083010 | 98 | 63 | 5.0 | 8.0 | 0.00 | 0.05 | 0.03 | 39 | |
| 20260508081508 | 96 | 262 | 6.0 | 11.0 | 0.00 | 0.05 | 0.03 | 37 | |
| 20260508080028 | 96 | 198 | 7.0 | 11.0 | 0.00 | 0.05 | 0.03 | 37 | |
| 20260508074509 | 95 | 227 | 6.0 | 14.0 | 0.00 | 0.05 | 0.03 | 40 | |
| 20260508073009 | 94 | 128 | 5.0 | 11.0 | 0.00 | 0.05 | 0.03 | 40 | |
| 20260508071530 | 95 | 304 | 9.0 | 13.0 | 0.00 | 0.05 | 0.03 | 39 | |
| 20260508070027 | 95 | 149 | 5.0 | 13.0 | 0.00 | 0.05 | 0.03 | 42 | |
| 20260508064548 | 95 | 151 | 7.0 | 9.0 | 0.00 | 0.05 | 0.03 | 35 | |
| 20260508063018 | 96 | 182 | 2.0 | 6.0 | 0.00 | 0.05 | 0.03 | 39 | |
| 20260508061515 | 96 | 330 | 3.0 | 9.0 | 0.00 | 0.05 | 0.03 | 30 | |
| 20260508054542 | 94 | 171 | 6.0 | 7.0 | 0.00 | 0.05 | 0.03 | 33 | |
| 20260508053023 | 94 | 231 | 2.0 | 8.0 | 0.00 | 0.05 | 0.03 | 33 | |
| 20260508051523 | 92 | 12 | 4.0 | 11.0 | 0.00 | 0.05 | 0.03 | 40 | |
| 20260508050024 | 91 | 327 | 4.0 | 6.0 | 0.00 | 0.05 | 0.03 | 41 | |
| 20260508044544 | 90 | 1 | 2.0 | 4.0 | 0.00 | 0.05 | 0.03 | 46 | |
| 20260508043020 | 88 | 321 | 1.0 | 5.0 | 0.00 | 0.05 | 0.03 | 49 | |
| 20260508041520 | 86 | 203 | 3.0 | 7.0 | 0.00 | 0.05 | 0.03 | 57 | |
| 20260508040044 | 85 | 215 | 2.0 | 6.0 | 0.00 | 0.05 | 0.03 | 63 | |
| 20260508034544 | 83 | 227 | 5.0 | 6.0 | 0.00 | 0.05 | 0.03 | 65 | |
| 20260508033023 | 82 | 185 | 3.0 | 8.0 | 0.01 | 0.05 | 0.03 | 69 | |
| 20260508031520 | 81 | 209 | 4.0 | 4.0 | 0.01 | 0.05 | 0.03 | 73 | |
| 20260508030043 | 79 | 128 | 1.0 | 6.0 | 0.01 | 0.05 | 0.03 | 77 | |
| 20260508024519 | 78 | 172 | 3.0 | 7.0 | 0.01 | 0.05 | 0.03 | 80 | |
| 20260508023018 | 77 | 169 | 4.0 | 10.0 | 0.02 | 0.05 | 0.03 | 82 | |
| 20260508021542 | 76 | 176 | 7.0 | 8.0 | 0.00 | 0.03 | 0.00 | 81 | |
| 20260508020040 | 76 | 145 | 3.0 | 8.0 | 0.00 | 0.03 | 0.00 | 81 | |
| 20260508014516 | 75 | 243 | 5.0 | 5.0 | 0.00 | 0.03 | 0.00 | 81 | |
| 20260508013016 | 74 | 353 | 1.0 | 8.0 | 0.00 | 7.34 | 7.31 | 80 | |
| 20260508011537 | 73 | 242 | 0.0 | 2.0 | 0.00 | 7.34 | 0.00 | 82 | |
| 20260508010012 | 74 | 254 | 1.0 | 4.0 | 0.00 | 7.34 | 0.00 | 80 | |
| 20260508004513 | 74 | 264 | 2.0 | 4.0 | 0.00 | 7.34 | 0.00 | 80 | |
| 20260508003036 | 73 | 231 | 0.0 | 6.0 | 0.00 | 1.85 | 1.12 | 79 | |
| 20260508001536 | 72 | 167 | 1.0 | 2.0 | 0.00 | 1.85 | 0.00 | 81 | |
| 20260508000014 | 73 | 145 | 1.0 | 2.0 | 0.00 | 1.85 | 0.00 | 79 | |
| 20260507234516 | 74 | 218 | 1.0 | 1.0 | 0.00 | 1.85 | 0.00 | 78 | |
| 20260507233038 | 73 | 274 | 1.0 | 1.0 | 0.00 | 3.31 | 1.45 | 77 | |
| 20260507231539 | 74 | 185 | 1.0 | 2.0 | 0.00 | 3.31 | 0.00 | 78 | |
| 20260507230015 | 74 | 191 | 0.0 | 3.0 | 0.00 | 3.31 | 0.00 | 77 | |
| 20260507224514 | 74 | 240 | 0.0 | 1.0 | 0.00 | 3.31 | 0.00 | 76 | |
| 20260507223033 | 75 | 321 | 0.0 | 3.0 | 0.00 | 4.50 | 1.18 | 73 | |
| 20260507221511 | 75 | 352 | 0.0 | 1.0 | 0.00 | 4.50 | 0.00 | 74 |